Time,TemperatureF,DewpointF,PressureIn,WindDirection,WindDirectionDegrees,WindSpeedMPH,WindSpeedGustMPH,Humidity,HourlyPrecipIn,Conditions,Clouds,dailyrainin,SolarRadiationWatts/m^2,SoftwareType,DateUTC
2013-07-15 00:01:00,77.0,27.0,-100.00,NE,48,4.0,8.0,16,0.00,,,0.00,0.000000,,2013-07-15 07:01:00,
2013-07-15 00:11:00,77.0,27.0,-100.00,NE,48,4.0,8.0,16,0.00,,,0.00,0.000000,,2013-07-15 07:11:00,
2013-07-15 01:43:00,77.0,20.0,-100.00,SSW,203,1.0,6.0,12,0.00,,,0.00,0.000000,,2013-07-15 08:43:00,
2013-07-15 01:53:00,77.0,20.0,-100.00,SSW,203,1.0,6.0,12,0.00,,,0.00,0.000000,,2013-07-15 08:53:00,
2013-07-15 02:01:00,77.0,20.0,-100.00,SSW,203,1.0,6.0,12,0.00,,,0.00,0.000000,,2013-07-15 09:01:00,
2013-07-15 02:11:00,77.0,20.0,-100.00,SSW,203,1.0,6.0,12,0.00,,,0.00,0.000000,,2013-07-15 09:11:00,
2013-07-15 02:43:00,75.0,21.0,-100.00,NNE,16,2.0,5.0,13,0.00,,,0.00,0.000000,,2013-07-15 09:43:00,
2013-07-15 02:52:00,75.0,21.0,-100.00,NNE,16,2.0,5.0,13,0.00,,,0.00,0.000000,,2013-07-15 09:52:00,
2013-07-15 03:02:00,75.0,21.0,-100.00,NNE,16,2.0,5.0,13,0.00,,,0.00,0.000000,,2013-07-15 10:02:00,
2013-07-15 03:11:00,75.0,21.0,-100.00,NNE,16,2.0,5.0,13,0.00,,,0.00,0.000000,,2013-07-15 10:11:00,
2013-07-15 03:43:00,71.0,23.0,-100.00,NNE,33,3.0,4.0,16,0.00,,,0.00,0.000000,,2013-07-15 10:43:00,
2013-07-15 03:53:00,71.0,23.0,-100.00,NNE,33,3.0,4.0,16,0.00,,,0.00,0.000000,,2013-07-15 10:53:00,
2013-07-15 04:01:00,71.0,23.0,-100.00,NNE,33,3.0,4.0,16,0.00,,,0.00,0.000000,,2013-07-15 11:01:00,
2013-07-15 04:11:00,71.0,23.0,-100.00,NNE,33,3.0,4.0,16,0.00,,,0.00,0.000000,,2013-07-15 11:11:00,
2013-07-15 04:32:00,69.0,25.0,-100.00,NE,42,4.0,6.0,19,0.00,,,0.00,0.000000,,2013-07-15 11:32:00,
2013-07-15 04:42:00,69.0,25.0,-100.00,NE,42,4.0,6.0,19,0.00,,,0.00,0.000000,,2013-07-15 11:42:00,
2013-07-15 04:52:00,69.0,25.0,-100.00,NE,42,4.0,6.0,19,0.00,,,0.00,0.000000,,2013-07-15 11:52:00,
2013-07-15 05:01:00,69.0,25.0,-100.00,NE,42,4.0,6.0,19,0.00,,,0.00,0.000000,,2013-07-15 12:01:00,
2013-07-15 05:11:00,69.0,25.0,-100.00,NE,42,4.0,6.0,19,0.00,,,0.00,0.000000,,2013-07-15 12:11:00,
2013-07-15 05:42:00,68.0,27.0,-100.00,NE,38,3.0,5.0,21,0.00,,,0.00,0.000000,,2013-07-15 12:42:00,
2013-07-15 05:53:00,68.0,27.0,-100.00,NE,38,3.0,5.0,21,0.00,,,0.00,0.000000,,2013-07-15 12:53:00,
2013-07-15 06:01:00,68.0,27.0,-100.00,NE,38,3.0,5.0,21,0.00,,,0.00,0.000000,,2013-07-15 13:01:00,
2013-07-15 06:11:00,68.0,27.0,-100.00,NE,38,3.0,5.0,21,0.00,,,0.00,0.000000,,2013-07-15 13:11:00,
2013-07-15 06:43:00,70.0,27.0,-100.00,NE,35,4.0,6.0,20,0.00,,,0.00,3.000000,,2013-07-15 13:43:00,
2013-07-15 06:53:00,70.0,27.0,-100.00,NE,35,4.0,6.0,20,0.00,,,0.00,3.000000,,2013-07-15 13:53:00,
2013-07-15 07:02:00,70.0,27.0,-100.00,NE,35,4.0,6.0,20,0.00,,,0.00,3.000000,,2013-07-15 14:02:00,
2013-07-15 07:11:00,70.0,27.0,-100.00,NE,35,4.0,6.0,20,0.00,,,0.00,3.000000,,2013-07-15 14:11:00,
2013-07-15 07:42:00,77.0,33.0,-100.00,NE,46,3.0,5.0,20,0.00,,,0.00,97.000000,,2013-07-15 14:42:00,
2013-07-15 07:59:00,77.0,33.0,-100.00,NE,46,3.0,5.0,20,0.00,,,0.00,97.000000,,2013-07-15 14:59:00,
2013-07-15 08:12:00,77.0,33.0,-100.00,NE,46,3.0,5.0,20,0.00,,,0.00,97.000000,,2013-07-15 15:12:00,
2013-07-15 08:13:00,84.0,33.0,-100.00,SW,236,4.0,6.0,16,0.00,,,0.00,289.000000,,2013-07-15 15:13:00,
2013-07-15 08:53:00,84.0,33.0,-100.00,SW,236,4.0,6.0,16,0.00,,,0.00,289.000000,,2013-07-15 15:53:00,
2013-07-15 09:03:00,84.0,33.0,-100.00,SW,236,4.0,6.0,16,0.00,,,0.00,289.000000,,2013-07-15 16:03:00,
2013-07-15 09:48:00,88.0,43.0,-100.00,WSW,251,5.0,9.0,21,0.00,,,0.00,485.000000,,2013-07-15 16:48:00,
2013-07-15 10:02:00,88.0,43.0,-100.00,WSW,251,5.0,9.0,21,0.00,,,0.00,485.000000,,2013-07-15 17:02:00,
2013-07-15 10:12:00,88.0,43.0,-100.00,WSW,251,5.0,9.0,21,0.00,,,0.00,485.000000,,2013-07-15 17:12:00,
2013-07-15 10:50:00,91.0,43.0,-100.00,WSW,250,6.0,11.0,19,0.00,,,0.00,670.000000,,2013-07-15 17:50:00,
2013-07-15 10:58:00,91.0,43.0,-100.00,WSW,250,6.0,11.0,19,0.00,,,0.00,670.000000,,2013-07-15 17:58:00,
2013-07-15 11:03:00,91.0,43.0,-100.00,WSW,250,6.0,11.0,19,0.00,,,0.00,670.000000,,2013-07-15 18:03:00,
2013-07-15 11:12:00,91.0,43.0,-100.00,WSW,250,6.0,11.0,19,0.00,,,0.00,670.000000,,2013-07-15 18:12:00,
2013-07-15 11:45:00,94.0,44.0,-100.00,WSW,237,5.0,11.0,18,0.00,,,0.00,821.000000,,2013-07-15 18:45:00,
2013-07-15 11:58:00,94.0,44.0,-100.00,WSW,237,5.0,11.0,18,0.00,,,0.00,821.000000,,2013-07-15 18:58:00,
2013-07-15 12:11:00,94.0,44.0,-100.00,WSW,237,5.0,11.0,18,0.00,,,0.00,821.000000,,2013-07-15 19:11:00,
2013-07-15 12:56:00,96.0,44.0,-100.00,West,264,5.0,12.0,17,0.00,,,0.00,918.000000,,2013-07-15 19:56:00,
2013-07-15 13:03:00,96.0,44.0,-100.00,West,264,5.0,12.0,17,0.00,,,0.00,918.000000,,2013-07-15 20:03:00,
2013-07-15 13:12:00,96.0,44.0,-100.00,West,264,5.0,12.0,17,0.00,,,0.00,918.000000,,2013-07-15 20:12:00,
2013-07-15 13:43:00,98.0,41.0,-100.00,WSW,253,5.0,12.0,14,0.00,,,0.00,958.000000,,2013-07-15 20:43:00,
2013-07-15 13:56:00,98.0,41.0,-100.00,WSW,253,5.0,12.0,14,0.00,,,0.00,958.000000,,2013-07-15 20:56:00,
2013-07-15 14:02:00,98.0,41.0,-100.00,WSW,253,5.0,12.0,14,0.00,,,0.00,958.000000,,2013-07-15 21:02:00,
2013-07-15 14:12:00,98.0,41.0,-100.00,WSW,253,5.0,12.0,14,0.00,,,0.00,958.000000,,2013-07-15 21:12:00,
2013-07-15 14:48:00,99.0,37.0,-100.00,WNW,295,5.0,14.0,12,0.00,,,0.00,947.000000,,2013-07-15 21:48:00,
2013-07-15 14:59:00,99.0,37.0,-100.00,WNW,295,5.0,14.0,12,0.00,,,0.00,947.000000,,2013-07-15 21:59:00,
2013-07-15 15:12:00,99.0,37.0,-100.00,WNW,295,5.0,14.0,12,0.00,,,0.00,947.000000,,2013-07-15 22:12:00,
2013-07-15 15:43:00,100.0,36.0,-100.00,WSW,254,5.0,14.0,11,0.00,,,0.00,881.000000,,2013-07-15 22:43:00,
2013-07-15 15:54:00,100.0,36.0,-100.00,WSW,254,5.0,14.0,11,0.00,,,0.00,881.000000,,2013-07-15 22:54:00,
2013-07-15 16:03:00,100.0,36.0,-100.00,WSW,254,5.0,14.0,11,0.00,,,0.00,881.000000,,2013-07-15 23:03:00,
2013-07-15 16:49:00,100.0,38.0,-100.00,West,265,6.0,15.0,12,0.00,,,0.00,750.000000,,2013-07-15 23:49:00,
2013-07-15 17:03:00,100.0,38.0,-100.00,West,265,6.0,15.0,12,0.00,,,0.00,750.000000,,2013-07-16 00:03:00,
2013-07-15 17:12:00,100.0,38.0,-100.00,West,265,6.0,15.0,12,0.00,,,0.00,750.000000,,2013-07-16 00:12:00,
2013-07-15 18:49:00,96.0,39.0,-100.00,WSW,258,5.0,12.0,14,-99.99,,,0.00,379.000000,,2013-07-16 01:49:00,
2013-07-15 18:59:00,96.0,39.0,-100.00,WSW,258,5.0,12.0,14,-99.99,,,0.00,379.000000,,2013-07-16 01:59:00,
2013-07-15 19:11:00,96.0,39.0,-100.00,WSW,258,5.0,12.0,14,-99.99,,,0.00,379.000000,,2013-07-16 02:11:00,
2013-07-15 19:51:00,92.0,39.0,-100.00,NW,309,3.0,9.0,16,0.00,,,0.00,184.000000,,2013-07-16 02:51:00,
2013-07-15 20:03:00,92.0,39.0,-100.00,NW,309,3.0,9.0,16,0.00,,,0.00,184.000000,,2013-07-16 03:03:00,
2013-07-15 20:57:00,86.0,39.0,-100.00,South,187,2.0,6.0,19,0.00,,,0.00,16.000000,,2013-07-16 03:57:00,
2013-07-15 21:01:00,86.0,39.0,-100.00,South,187,2.0,6.0,19,0.00,,,0.00,16.000000,,2013-07-16 04:01:00,
2013-07-15 21:12:00,86.0,39.0,-100.00,South,187,2.0,6.0,19,0.00,,,0.00,16.000000,,2013-07-16 04:12:00,